�N����,����,�~����,�C��,���x,�C��,����,���ϕ���,�ő�u�ԕ���,�ő厞����,���˗�,�I�_���x,�n�����x,�ő啗���N��,DTYPE
"18/04/01","00:10",0.0,8.8,88.9,1015.2,297.1,1.8,3.6,324.0,0.00,7.1,11.6,"00:00:24",1
"18/04/01","00:20",0.0,8.8,89.0,1015.4,301.4,1.8,2.2,308.9,0.00,7.1,11.7,"00:12:24",1
"18/04/01","00:30",0.0,8.7,88.5,1015.2,308.1,1.7,2.6,311.4,0.00,6.9,11.6,"00:23:44",1
"18/04/01","00:40",0.0,8.5,88.3,1015.2,311.3,1.6,2.4,324.3,0.00,6.7,11.5,"00:39:28",1
"18/04/01","00:50",0.0,8.1,89.6,1015.4,309.8,1.2,1.8,324.9,0.00,6.5,11.3,"00:41:52",1
"18/04/01","01:00",0.0,8.2,91.0,1014.9,301.5,1.7,2.4,317.2,0.00,6.9,11.2,"00:58:16",1
"18/04/01","01:10",0.0,8.4,91.0,1014.9,302.4,1.7,2.7,324.4,0.00,7.1,11.3,"01:04:16",1
"18/04/01","01:20",0.0,8.2,90.0,1014.9,321.9,1.8,2.4,320.9,0.00,6.7,11.2,"01:17:36",1
"18/04/01","01:30",0.0,8.0,91.6,1014.9,315.3,1.7,2.2,321.5,0.00,6.8,11.2,"01:24:08",1
"18/04/01","01:40",0.0,8.3,91.8,1014.7,300.0,1.8,2.6,326.3,0.00,7.1,11.3,"01:36:48",1
"18/04/01","01:50",0.0,8.2,90.4,1014.5,323.0,1.8,2.4,322.9,0.00,6.8,11.0,"01:48:00",1
"18/04/01","02:00",0.0,8.0,92.3,1014.7,294.9,1.7,2.1,316.5,0.00,6.9,11.1,"01:50:48",1
"18/04/01","02:10",0.0,8.1,92.3,1014.2,288.1,1.3,2.1,307.8,0.00,7.0,11.0,"02:00:24",1
"18/04/01","02:20",0.0,7.7,90.8,1014.5,318.1,2.0,2.7,321.4,0.00,6.3,11.0,"02:19:04",1
"18/04/01","02:30",0.0,7.3,92.5,1014.5,318.7,2.6,2.9,323.4,0.00,6.2,11.0,"02:28:00",1
"18/04/01","02:40",0.0,7.4,93.6,1014.2,320.4,2.2,2.6,323.5,0.00,6.5,10.7,"02:32:48",1
"18/04/01","02:50",0.0,7.4,93.7,1014.2,312.5,2.1,2.6,324.9,0.00,6.5,10.9,"02:47:28",1
"18/04/01","03:00",0.0,7.3,93.9,1014.5,314.7,1.8,2.4,318.7,0.00,6.4,10.7,"02:56:32",1
"18/04/01","03:10",0.0,7.1,94.3,1014.0,303.1,1.3,1.8,320.0,0.00,6.3,10.7,"03:00:08",1
"18/04/01","03:20",0.0,7.2,95.1,1014.2,302.5,1.1,1.9,323.2,0.00,6.5,10.6,"03:19:52",1
"18/04/01","03:30",0.0,7.0,94.6,1014.0,309.6,2.2,2.7,312.6,0.00,6.2,10.6,"03:25:44",1
"18/04/01","03:40",0.0,7.0,94.9,1014.0,321.7,1.8,2.5,314.1,0.00,6.3,10.4,"03:39:44",1
"18/04/01","03:50",0.0,6.9,95.3,1014.2,311.1,2.1,2.7,322.9,0.00,6.2,10.3,"03:40:56",1
"18/04/01","04:00",0.0,6.8,95.7,1014.2,295.6,1.5,1.8,313.2,0.00,6.2,10.2,"03:51:20",1
"18/04/01","04:10",0.0,6.9,96.6,1014.0,303.8,1.7,2.4,322.3,0.00,6.4,10.2,"04:04:00",1
"18/04/01","04:20",0.0,7.0,95.9,1014.0,292.8,1.5,1.9,309.8,0.00,6.4,10.2,"04:10:40",1
"18/04/01","04:30",0.0,6.8,95.8,1014.0,305.6,1.3,2.4,308.2,0.00,6.2,10.2,"04:20:02",1
"18/04/01","04:40",0.0,6.5,96.2,1014.2,314.6,2.6,2.9,318.4,0.00,6.0,10.3,"04:34:56",1
"18/04/01","04:50",0.0,6.6,96.5,1014.2,310.5,1.8,2.5,310.8,0.00,6.1,10.2,"04:40:08",1
"18/04/01","05:00",0.0,6.4,96.4,1014.0,301.4,1.7,2.5,312.1,0.00,5.9,10.2,"04:57:20",1
"18/04/01","05:10",0.0,6.6,96.6,1014.2,318.1,2.0,2.6,314.2,0.00,6.1,10.2,"05:01:16",1
"18/04/01","05:20",0.0,6.4,96.5,1014.0,294.4,1.7,2.8,319.3,0.00,5.9,10.3,"05:19:28",1
"18/04/01","05:30",0.0,6.4,97.4,1014.0,303.1,1.7,2.5,313.4,0.00,6.1,10.0,"05:20:08",1
"18/04/01","05:40",0.0,6.5,97.4,1014.2,284.6,1.5,2.0,306.3,0.00,6.2,10.0,"05:30:24",1
"18/04/01","05:50",0.0,6.6,97.7,1014.2,295.9,1.5,2.2,325.3,0.00,6.3,9.9,"05:49:52",1
"18/04/01","06:00",0.0,6.3,97.1,1014.5,316.4,2.5,2.8,319.3,0.00,5.9,10.1,"05:59:44",1
"18/04/01","06:10",0.0,6.3,97.6,1014.5,312.0,2.3,2.7,322.8,0.00,6.0,9.8,"06:00:32",1
"18/04/01","06:20",0.0,6.5,98.0,1014.5,307.1,2.1,2.6,320.2,0.00,6.2,9.9,"06:19:36",1
"18/04/01","06:30",0.0,6.9,97.4,1014.5,310.7,2.0,2.8,319.7,0.00,6.6,9.9,"06:22:24",1
"18/04/01","06:40",0.0,7.1,98.1,1014.7,286.0,1.0,1.3,294.5,0.01,6.9,9.8,"06:37:28",1
"18/04/01","06:50",0.0,7.7,97.1,1014.7,298.9,1.0,1.2,301.1,0.02,7.3,10.2,"06:40:08",1
"18/04/01","07:00",0.0,8.1,97.6,1014.7,301.5,1.1,1.7,316.6,0.03,7.8,10.1,"06:50:32",1
"18/04/01","07:10",0.0,8.9,97.2,1015.2,304.6,1.3,1.9,313.6,0.04,8.5,10.2,"07:00:02",1
"18/04/01","07:20",0.0,9.6,95.7,1014.9,321.7,1.6,2.2,323.6,0.05,9.0,10.2,"07:11:12",1
"18/04/01","07:30",0.0,10.5,93.3,1014.9,314.5,1.3,1.9,319.7,0.06,9.5,10.2,"07:20:08",1
"18/04/01","07:40",0.0,11.0,89.9,1015.2,291.6,0.6,1.1,260.2,0.08,9.4,10.4,"07:36:56",1
"18/04/01","07:50",0.0,11.8,85.7,1014.9,311.5,0.5,0.9,302.9,0.11,9.5,10.6,"07:40:08",1
"18/04/01","08:00",0.0,12.2,84.0,1015.4,286.6,0.2,0.6,299.5,0.14,9.6,10.9,"07:50:08",1
"18/04/01","08:10",0.0,12.8,80.6,1015.6,348.2,0.2,0.9,322.3,0.16,9.6,11.0,"08:03:52",1
"18/04/01","08:20",0.0,13.3,78.8,1015.9,108.6,0.3,0.8,128.5,0.18,9.7,11.2,"08:10:08",1
"18/04/01","08:30",0.0,13.7,77.5,1015.9,141.9,0.3,1.1,88.4,0.20,9.9,11.2,"08:25:36",1
"18/04/01","08:40",0.0,14.3,75.1,1016.1,214.2,0.7,2.1,118.9,0.23,10.0,11.3,"08:38:24",1
"18/04/01","08:50",0.0,14.7,73.3,1016.1,154.9,0.6,1.3,188.0,0.25,10.0,11.4,"08:48:08",1
"18/04/01","09:00",0.0,14.8,71.1,1015.9,170.0,0.7,1.7,121.4,0.28,9.7,11.8,"08:56:32",1
"18/04/01","09:10",0.0,15.3,70.7,1016.1,178.8,0.8,1.9,210.4,0.28,10.1,12.2,"09:08:06",1
"18/04/01","09:20",0.0,15.7,70.7,1015.6,162.0,1.0,2.4,119.9,0.31,10.4,12.2,"09:10:16",1
"18/04/01","09:30",0.0,15.8,66.3,1015.2,203.9,1.1,2.9,194.4,0.34,9.6,12.5,"09:23:28",1
"18/04/01","09:40",0.0,16.1,66.3,1015.2,164.3,1.2,3.3,175.4,0.36,9.9,12.7,"09:39:12",1
"18/04/01","09:50",0.0,16.4,65.9,1015.2,223.4,1.3,3.3,154.0,0.37,10.1,12.9,"09:46:24",1
"18/04/01","10:00",0.0,16.4,66.0,1015.2,192.3,1.6,3.4,217.1,0.39,10.1,13.2,"09:56:48",1
"18/04/01","10:10",0.0,16.3,64.8,1014.9,182.6,1.1,2.7,139.7,0.42,9.7,13.4,"10:06:32",1
"18/04/01","10:20",0.0,17.7,65.9,1014.7,186.3,1.1,2.9,163.9,0.44,11.3,13.6,"10:12:32",1
"18/04/01","10:30",0.0,17.8,65.0,1014.2,155.6,1.7,3.7,131.7,0.46,11.2,14.0,"10:22:08",1
"18/04/01","10:40",0.0,17.7,63.1,1014.2,157.3,1.5,3.5,124.2,0.47,10.6,14.2,"10:35:44",1
"18/04/01","10:50",0.0,18.1,62.4,1014.0,91.6,1.5,3.6,126.9,0.42,10.8,14.4,"10:42:24",1
"18/04/01","11:00",0.0,18.6,62.5,1013.8,129.8,1.3,3.3,118.4,0.44,11.3,14.6,"10:51:20",1
"18/04/01","11:10",0.0,18.5,60.4,1013.3,153.9,1.3,3.3,121.5,0.51,10.7,15.0,"11:01:52",1
"18/04/01","11:20",0.0,18.8,59.1,1013.0,183.8,1.0,3.3,124.7,0.51,10.7,15.2,"11:16:08",1
"18/04/01","11:30",0.0,19.7,60.7,1012.8,152.2,1.3,3.3,178.2,0.53,11.9,15.6,"11:23:20",1
"18/04/01","11:40",0.0,20.3,57.4,1012.6,142.8,1.5,4.4,126.0,0.56,11.7,15.8,"11:30:48",1
"18/04/01","11:50",0.0,21.2,54.8,1012.1,74.7,1.7,3.5,155.1,0.59,11.8,16.2,"11:49:20",1
"18/04/01","12:00",0.0,20.3,55.1,1011.9,160.5,1.8,5.9,232.3,0.41,11.0,16.3,"11:59:52",1
"18/04/01","12:10",0.0,20.4,55.6,1012.3,194.4,1.2,5.1,234.6,0.33,11.3,16.5,"12:00:16",1
"18/04/01","12:20",0.0,20.5,54.7,1012.3,188.5,1.1,3.6,130.0,0.31,11.1,16.5,"12:11:44",1
"18/04/01","12:30",0.0,21.0,52.9,1012.3,18.9,1.2,2.9,348.3,0.28,11.1,16.8,"12:29:36",1
"18/04/01","12:40",0.0,20.7,53.6,1011.6,258.8,1.3,2.6,228.8,0.26,11.0,16.6,"12:37:36",1
"18/04/01","12:50",0.0,21.8,53.1,1011.4,231.9,1.3,3.9,225.6,0.42,11.9,16.8,"12:49:20",1
"18/04/01","13:00",0.0,21.1,55.3,1011.4,234.9,2.6,4.9,236.9,0.42,11.8,17.0,"12:50:24",1
"18/04/01","13:10",0.0,20.9,53.4,1011.2,253.6,2.0,4.7,217.4,0.33,11.1,17.0,"13:03:12",1
"18/04/01","13:20",0.0,20.6,54.7,1011.2,232.9,2.2,5.1,224.6,0.24,11.2,17.1,"13:14:00",1
"18/04/01","13:30",0.0,21.1,53.0,1011.4,174.2,2.7,4.5,166.6,0.27,11.2,17.0,"13:29:36",1
"18/04/01","13:40",0.0,21.2,53.6,1011.2,186.7,3.1,5.4,152.3,0.28,11.5,17.0,"13:36:40",1
"18/04/01","13:50",0.0,21.0,54.6,1010.9,198.1,3.2,6.2,221.4,0.30,11.6,17.2,"13:48:40",1
"18/04/01","14:00",0.0,21.3,53.9,1010.4,197.3,2.1,3.9,189.3,0.28,11.6,17.1,"13:53:44",1
"18/04/01","14:10",0.0,21.3,52.8,1010.7,182.8,3.1,6.2,190.0,0.35,11.3,17.3,"14:00:02",1
"18/04/01","14:20",0.0,20.9,53.9,1010.7,175.5,2.8,5.9,163.5,0.14,11.3,17.2,"14:12:00",1
"18/04/01","14:30",0.0,21.2,53.4,1010.7,162.2,3.0,5.8,147.1,0.18,11.4,17.1,"14:28:08",1
"18/04/01","14:40",0.0,21.4,52.8,1010.7,173.2,3.1,5.4,141.8,0.19,11.4,17.1,"14:36:00",1
"18/04/01","14:50",0.0,22.2,51.3,1010.2,242.8,1.5,3.2,211.0,0.25,11.7,17.0,"14:40:08",1
"18/04/01","15:00",0.0,22.5,48.4,1010.2,221.2,1.6,4.0,204.2,0.33,11.1,17.1,"14:50:48",1
"18/04/01","15:10",0.0,22.2,50.6,1009.7,270.3,1.6,3.7,224.9,0.31,11.5,17.2,"15:05:52",1
"18/04/01","15:20",0.0,22.1,51.3,1010.0,244.9,2.1,4.5,231.0,0.30,11.6,17.1,"15:14:08",1
"18/04/01","15:30",0.0,22.1,50.0,1010.0,233.9,2.6,6.4,204.1,0.24,11.2,17.3,"15:21:20",1
"18/04/01","15:40",0.0,21.4,50.4,1009.7,254.5,2.5,5.2,246.6,0.19,10.7,17.3,"15:36:32",1
"18/04/01","15:50",0.0,21.6,50.8,1010.2,223.0,2.1,4.3,229.5,0.18,11.0,17.3,"15:45:12",1
"18/04/01","16:00",0.0,21.5,51.0,1010.0,230.7,2.2,3.6,234.4,0.18,11.0,17.2,"15:58:16",1
"18/04/01","16:10",0.0,21.7,51.1,1009.7,248.4,1.5,3.5,232.6,0.19,11.2,17.3,"16:01:12",1
"18/04/01","16:20",0.0,21.4,52.3,1010.2,231.2,1.8,4.8,236.9,0.15,11.3,17.3,"16:19:52",1
"18/04/01","16:30",0.0,21.4,52.5,1010.2,226.1,2.3,5.6,220.0,0.13,11.3,17.2,"16:28:32",1
"18/04/01","16:40",0.0,21.5,53.3,1010.4,237.5,1.8,3.9,234.5,0.11,11.7,17.1,"16:35:20",1
"18/04/01","16:50",0.0,21.4,52.7,1010.2,241.9,1.7,4.2,222.2,0.10,11.4,17.1,"16:44:48",1
"18/04/01","17:00",0.0,21.2,52.9,1010.0,247.3,2.1,4.2,237.7,0.08,11.3,17.0,"16:50:08",1
"18/04/01","17:10",0.0,21.1,53.6,1010.4,248.6,1.6,4.8,233.7,0.07,11.4,16.6,"17:07:04",1
"18/04/01","17:20",0.0,20.7,54.0,1010.2,265.9,1.6,3.1,276.8,0.04,11.1,16.7,"17:18:32",1
"18/04/01","17:30",0.0,20.4,55.0,1010.7,250.9,2.1,3.9,246.0,0.02,11.1,16.6,"17:24:08",1
"18/04/01","17:40",0.0,20.2,55.9,1010.7,266.7,1.6,4.0,292.3,0.01,11.2,16.6,"17:30:08",1
"18/04/01","17:50",0.0,20.0,56.9,1010.7,253.0,1.7,3.9,230.2,0.01,11.2,16.4,"17:42:16",1
"18/04/01","18:00",0.0,19.7,58.4,1010.7,251.4,1.5,2.6,250.5,0.00,11.4,16.4,"17:54:16",1
"18/04/01","18:10",0.0,19.3,59.6,1010.4,261.7,1.2,2.9,257.2,0.00,11.3,16.3,"18:03:44",1
"18/04/01","18:20",0.0,19.1,60.3,1010.9,268.0,1.1,2.6,237.6,0.00,11.3,16.0,"18:12:08",1
"18/04/01","18:30",0.0,18.9,61.1,1010.9,264.0,1.3,2.8,235.4,0.00,11.3,15.9,"18:23:20",1
"18/04/01","18:40",0.0,18.5,62.2,1010.7,250.6,1.1,2.7,232.1,0.00,11.2,15.9,"18:38:24",1
"18/04/01","18:50",0.0,18.1,63.3,1011.2,260.5,0.8,2.4,310.5,0.00,11.1,15.7,"18:42:56",1
"18/04/01","19:00",0.0,18.0,64.3,1011.2,295.2,1.3,2.5,35.4,0.00,11.2,15.7,"18:58:40",1
"18/04/01","19:10",0.0,17.7,65.4,1011.4,353.8,0.8,1.4,353.9,0.00,11.2,15.8,"19:00:48",1
"18/04/01","19:20",0.0,17.5,66.6,1011.2,325.8,0.8,1.4,328.7,0.00,11.3,15.6,"19:16:56",1
"18/04/01","19:30",0.0,17.4,67.1,1011.4,12.4,0.6,1.2,343.4,0.00,11.3,15.5,"19:20:32",1
"18/04/01","19:40",0.0,17.0,68.1,1011.9,340.3,1.0,1.6,358.2,0.00,11.1,15.2,"19:33:04",1
"18/04/01","19:50",0.0,16.7,69.3,1011.6,332.1,1.5,2.2,335.2,0.00,11.1,15.2,"19:48:00",1
"18/04/01","20:00",0.0,16.7,70.6,1011.9,332.2,2.0,3.1,335.0,0.00,11.4,15.0,"19:56:48",1
"18/04/01","20:10",0.0,16.5,70.4,1011.9,334.9,2.2,3.4,338.7,0.00,11.1,15.1,"20:02:24",1
"18/04/01","20:20",0.0,16.0,72.3,1012.6,336.1,2.2,4.0,342.8,0.00,11.1,15.1,"20:14:00",1
"18/04/01","20:30",0.0,15.8,73.5,1012.3,330.7,2.3,3.4,328.2,0.00,11.1,14.8,"20:23:28",1
"18/04/01","20:40",0.0,15.8,74.1,1012.3,329.2,2.2,3.3,338.3,0.00,11.2,14.9,"20:35:44",1
"18/04/01","20:50",0.0,15.5,75.5,1012.6,315.1,1.7,2.9,337.1,0.00,11.2,14.8,"20:45:36",1
"18/04/01","21:00",0.0,15.6,75.9,1012.6,329.6,2.3,3.3,320.0,0.00,11.4,14.5,"20:57:12",1
"18/04/01","21:10",0.0,15.5,75.8,1012.1,325.3,2.1,2.9,334.8,0.00,11.3,14.5,"21:02:56",1
"18/04/01","21:20",0.0,15.3,76.2,1012.3,320.1,2.0,2.5,327.8,0.00,11.2,14.5,"21:16:24",1
"18/04/01","21:30",0.0,15.1,77.7,1012.8,331.2,1.7,2.6,330.7,0.00,11.3,14.4,"21:28:24",1
"18/04/01","21:40",0.0,14.9,78.5,1012.3,308.5,1.3,2.1,308.0,0.00,11.2,14.4,"21:33:28",1
"18/04/01","21:50",0.0,14.8,79.0,1012.6,297.0,1.5,2.9,328.3,0.00,11.2,14.4,"21:43:04",1
"18/04/01","22:00",0.0,14.7,79.4,1012.6,303.6,1.6,2.4,326.7,0.00,11.2,14.4,"21:54:16",1
"18/04/01","22:10",0.0,14.6,79.6,1012.8,298.6,1.6,3.1,328.9,0.00,11.2,14.0,"22:05:20",1
"18/04/01","22:20",0.0,14.5,80.2,1013.0,287.0,1.3,2.4,294.9,0.00,11.2,14.1,"22:10:24",1
"18/04/01","22:30",0.0,14.6,80.6,1012.6,308.9,1.5,3.4,333.0,0.00,11.3,14.0,"22:28:00",1
"18/04/01","22:40",0.0,14.6,80.0,1012.8,290.6,1.1,2.2,328.0,0.00,11.2,13.9,"22:32:56",1
"18/04/01","22:50",0.0,14.5,80.1,1012.8,278.0,1.1,1.4,313.1,0.00,11.2,13.9,"22:44:24",1
"18/04/01","23:00",0.0,14.4,80.4,1012.8,287.4,1.0,1.4,314.5,0.00,11.1,13.8,"22:55:04",1
"18/04/01","23:10",0.0,14.2,80.6,1012.6,290.6,1.3,2.0,303.9,0.00,11.0,13.9,"23:06:48",1
"18/04/01","23:20",0.0,14.0,81.8,1013.0,318.4,1.1,1.4,327.5,0.00,11.0,13.7,"23:12:00",1
"18/04/01","23:30",0.0,13.8,82.9,1013.3,321.0,1.3,1.7,320.1,0.00,11.0,13.7,"23:26:40",1
"18/04/01","23:40",0.0,13.6,83.1,1012.8,318.0,1.1,1.6,318.7,0.00,10.8,13.7,"23:36:00",1
"18/04/01","23:50",0.0,13.5,84.6,1012.8,308.8,1.2,1.9,319.4,0.00,11.0,13.5,"23:48:08",1
"18/04/01","24:00",0.0,13.5,84.7,1012.8,283.1,1.1,1.4,297.6,0.00,11.0,13.6,"23:50:32",1
